CAPE
0 0 0 0 0 0 0 0 0 0 0 0 0 0 0 0 0 0 0 0 0 0 0 0 0 0 0 0 0 0 0 0 0 0 0 0 0 0 0 0 0 0 0 0
0 0 0 0 0 0 0 0 0 0 0 0 0 0 0 0 0 0 0 0 0 0 0 0 0 0 0 0 0 0 0 0 0 0 0 0 0 0 0 0 0 0 0 0
0 0 0 0 0 0 0 0 0 0 0 0 0 0 0 0 0 0 0 0 0 0 0 0 0 0 0 0 0 0 0 0 0 0 0 0 0 0 0 0 0 0 0 0
0 0 0 0 0 0 0 0 0 0 0 0 0 0 0 0 0 0 0 0 0 0 0 0 0 0 0 0 0 0 0 0 0 0 0 0 0 0 0 0 0 0 0 0
0 0 0 0 0 0 0 0 0 0 0 0 0 0 0 0 0 0 0 0 0 0 0 0 0 0 0 0 0 0 0 0 0 0 0 0 0 0 0 0 0 0 0 0
0 0 0 0 0 0 0 0 0 0 0 0 0 0 0 0 0 0 0 0 0 0 0 0 0 0 0 0 0 0 0 0 0 0 0 0 0 0 0 0 0 0 0 0
0 0 0 0 0 0 0 0 0 0 0 0 0 0 0 0 0 0 0 0 0 0 0 0 0 0 0 0 0 0 0 0 0 0 0 0 0 0 0 0 0 0 0 0
0 0 0 0 0 0 0 0 0 0 0 0 0 0 0 0 0 0 0 0 0 0 0 0 0 0 0 0 0 0 0 0 0 0 0 0 0 0 0 0 0 0 0 0
0 0 0 0 0 0 0 0 0 0 0 0 0 0 0 0 0 0 0 0 0 0 0 0 0 0 0 0 0 0 0 0 0 0 0 0 0 0 0 0 0 0 0 0
0 0 0 0 0 0 0 0 0 0 0 0 0 0 0 0 0 0 0 0 0 0 0 0 0 0 0 0 0 0 0 0 0 0 0 0 0 0 0 0 0 0 0 0
0 0 0 0 0 0 0 0 0 0 0 0 0 0 0 0 0 0 0 0 0 0 0 0 0 0 0 0 0 0 0 0 0 0 0 0 0 0 0 0 0 0 0 0
0 0 0 0 0 0 0 0 0 0 0 0 0 0 0 0 0 0 0 0 0 0 0 0 0 0 0 0 0 0 0 0 0 0 0 0 0 0 0 0 0 0 0 0
0 0 0 0 0 0 0 0 0 0 0 0 0 0 0 0 0 0 0 0 0 0 0 0 0 0 0 0 0 0 0 0 0 0 0 0 0 0 0 0 0 0 0 0
0 0 0 0 0 0 0 0 0 0 0 0 0 0 0 0 0 0 0 0 0 0 0 0 0 0 0 0 0 0 0 0 0 0 0 0 0 0 0 0 2 2 1 0
0 0 0 0 0 0 0 0 0 0 0 0 0 0 0 0 0 0 0 0 0 0 0 0 0 0 0 0 0 0 0 0 0 0 0 0 0 0 0 4 3 2 2 6
0 0 0 0 0 0 0 0 0 0 0 0 0 0 0 0 0 0 0 0 0 0 0 0 0 0 0 0 0 0 0 0 0 0 1 0 0 4 3 1 2 3 3 2
0 0 0 0 0 0 0 0 0 0 0 0 0 0 0 0 0 0 0 0 0 0 0 0 0 0 0 0 1 2 1 1 2 2 3 3 3 2 2 2 2 4 4 3
0 0 0 0 0 0 0 0 0 0 0 0 0 0 0 0 0 0 0 0 0 0 0 0 0 0 0 0 1 2 3 2 2 2 2 2 2 2 3 4 3 1 1 2
0 0 0 0 0 0 0 0 0 0 0 0 0 0 0 0 0 0 0 0 0 0 0 0 0 0 0 1 2 2 2 2 2 1 1 1 2 4 4 2 1 1 3 2
0 0 0 0 0 0 0 0 0 0 0 0 0 0 0 0 0 0 0 0 0 0 0 0 0 0 1 1 1 2 2 2 2 1 0 0 3 3 1 3 3 1 5 1
0 0 0 0 0 0 0 0 0 0 0 0 0 0 0 0 0 0 0 0 0 0 0 0 0 1 1 1 2 2 3 2 1 1 1 1 1 2 9 6 4 5 3 1
0 0 0 0 0 0 0 0 0 0 0 0 0 0 0 0 0 0 0 0 0 0 0 0 0 2 1 1 2 2 2 2 1 1 1 1 10 10 7 3 4 4 2 1
0 0 0 0 0 0 0 0 0 0 0 0 0 0 0 0 0 0 0 0 0 0 0 0 1 3 1 1 2 2 2 2 1 0 2 9 4 7 7 4 4 3 1 1
0 0 0 0 0 0 0 0 0 0 0 0 0 0 0 0 0 0 0 0 0 0 0 0 1 2 2 2 2 2 2 3 1 6 6 4 6 3 2 3 2 1 1 0
0 0 0 0 0 0 0 0 0 0 0 0 0 0 0 0 0 0 0 0 0 0 0 1 1 2 2 2 3 3 3 2 9 10 4 5 4 3 3 3 1 1 0 0
0 0 0 0 0 0 0 0 0 0 0 0 0 0 0 0 0 0 0 0 0 0 0 0 1 1 2 2 4 4 2 2 11 5 5 5 4 3 1 1 2 5 3 1
CIN
0 0 0 0 0 0 0 0 0 0 0 0 0 0 0 0 0 0 0 0 0 0 0 0 0 0 0 0 0 0 0 0 0 0 0 0 0 0 0 0 0 0 0 0
0 0 0 0 0 0 0 0 0 0 0 0 0 0 0 0 0 0 0 0 0 0 0 0 0 0 0 0 0 0 0 0 0 0 0 0 0 0 0 0 0 0 0 0
0 0 0 0 0 0 0 0 0 0 0 0 0 0 0 0 0 0 0 0 0 0 0 0 0 0 0 0 0 0 0 0 0 0 0 0 0 0 0 0 0 0 0 0
0 0 0 0 0 0 0 0 0 0 0 0 0 0 0 0 0 0 0 0 0 0 0 0 0 0 0 0 0 0 0 0 0 0 0 0 0 0 0 0 0 0 0 0
0 0 0 0 0 0 0 0 0 0 0 0 0 0 0 0 0 0 0 0 0 0 0 0 0 0 0 0 0 0 0 0 0 0 0 0 0 0 0 0 0 0 0 0
0 0 0 0 0 0 0 0 0 0 0 0 0 0 0 0 0 0 0 0 0 0 0 0 0 0 0 0 0 0 0 0 0 0 0 0 0 0 0 0 0 0 0 0
0 0 0 0 0 0 0 0 0 0 0 0 0 0 0 0 0 0 0 0 0 0 0 0 0 0 0 0 0 0 0 0 0 0 0 0 0 0 0 0 0 0 0 0
0 0 0 0 0 0 0 0 0 0 0 0 0 0 0 0 0 0 0 0 0 0 0 0 0 0 0 0 0 0 0 0 0 0 0 0 0 0 0 0 0 0 0 0
0 0 0 0 0 0 0 0 0 0 0 0 0 0 0 0 0 0 0 0 0 0 0 0 0 0 0 0 0 0 0 0 0 0 0 0 0 0 0 0 0 0 0 0
0 0 0 0 0 0 0 0 0 0 0 0 0 0 0 0 0 0 0 0 0 0 0 0 0 0 0 0 0 0 0 0 0 0 0 0 0 0 0 0 0 0 0 0
0 0 0 0 0 0 0 0 0 0 0 0 0 0 0 0 0 0 0 0 0 0 0 0 0 0 0 0 0 0 0 0 0 0 0 0 0 0 0 0 0 0 0 0
0 0 0 0 0 0 0 0 0 0 0 0 0 0 0 0 0 0 0 0 0 0 0 0 0 0 0 0 0 0 0 0 0 0 0 0 0 0 0 0 0 0 0 0
0 0 0 0 0 0 0 0 0 0 0 0 0 0 0 0 0 0 0 0 0 0 0 0 0 0 0 0 0 0 0 0 0 0 0 0 0 0 0 0 0 0 0 0
0 0 0 0 0 0 0 0 0 0 0 0 0 0 0 0 0 0 0 0 0 0 0 0 0 0 0 0 0 0 0 0 0 0 0 0 0 0 0 0 0 0 -2 -3
0 0 0 0 0 0 0 0 0 0 0 0 0 0 0 0 0 0 0 0 0 0 0 0 0 0 0 0 0 0 0 0 0 0 0 0 0 0 0 0 0 -2 -6 0
0 0 0 0 0 0 0 0 0 0 0 0 0 0 0 0 0 0 0 0 0 0 0 0 0 0 0 0 0 0 0 -2 0 0 0 0 0 0 0 0 0 0 0 0
0 0 0 0 0 0 0 0 0 0 0 0 0 0 0 0 0 0 0 0 0 0 0 0 0 0 0 0 0 0 0 0 0 0 0 0 0 0 0 0 0 0 0 0
0 0 0 0 0 0 0 0 0 0 0 0 0 0 0 0 0 0 0 0 0 0 0 0 0 0 0 0 0 0 0 0 0 0 0 0 0 0 0 0 0 0 0 0
0 0 0 0 0 0 0 0 0 0 0 0 0 0 0 0 0 0 0 0 0 0 0 0 0 0 0 0 0 0 0 0 0 0 0 0 0 0 0 0 0 0 -2 -4
0 0 0 0 0 0 0 0 0 0 0 0 0 0 0 0 0 0 0 0 0 0 0 0 0 0 0 0 0 0 0 0 0 0 0 -1 0 0 0 0 0 0 0 0
0 0 0 0 0 0 0 0 0 0 0 0 0 0 0 0 0 0 0 0 0 0 0 0 0 0 0 0 0 0 0 0 0 0 0 0 -1 -1 0 0 0 0 0 0
0 0 0 0 0 0 0 0 0 0 0 0 0 0 0 0 0 0 0 0 0 0 0 0 -1 0 0 0 0 0 0 0 0 0 0 -5 -1 0 0 0 0 0 0 0
0 0 0 0 0 0 0 0 0 0 0 0 0 0 0 0 0 0 0 0 0 0 0 0 0 0 0 0 0 0 0 0 0 -1 0 0 -1 0 0 0 0 0 0 0
0 0 0 0 0 0 0 0 0 0 0 0 0 0 0 0 0 0 0 0 0 0 0 0 0 0 0 0 0 0 0 0 -3 -1 0 0 0 0 0 0 0 0 0 0
0 0 0 0 0 0 0 0 0 0 0 0 0 0 0 0 0 0 0 0 0 0 0 0 0 0 0 0 0 0 0 0 -1 0 0 0 0 0 0 0 0 0 0 0
0 0 0 0 0 0 0 0 0 0 0 0 0 0 0 0 0 0 0 0 0 0 0 0 0 0 0 0 0 0 0 0 0 0 0 0 0 0 0 0 0 0 0 0
Wind_Speed
23 25 24 24 25 21 19 21 25 27 27 34 28 26 26 26 27 30 32 36 38 39 37 38 39 41 41 40 41 42 43 43 41 39 39 42 44 43 41 41 40 40 40 41
20 26 22 19 28 26 23 22 24 24 30 33 25 25 24 28 31 33 36 40 42 44 45 45 45 45 45 44 45 45 44 44 44 40 40 40 40 39 38 39 39 40 41 41
23 18 22 26 32 37 28 27 29 31 34 26 21 26 24 26 34 36 40 41 45 47 49 50 50 49 48 48 49 49 49 47 42 39 39 39 39 37 37 39 40 40 39 39
23 24 25 31 34 36 31 32 34 35 32 31 24 35 28 29 38 41 45 47 50 52 52 52 53 53 53 52 50 48 45 44 38 38 39 40 42 43 40 39 39 40 39 38
20 24 27 31 34 36 31 40 39 33 28 27 28 35 33 33 41 44 48 51 52 53 53 55 55 54 53 53 51 47 43 38 38 40 41 43 44 43 41 41 42 40 39 38
22 23 25 29 32 32 41 40 32 28 28 37 30 40 42 38 41 45 49 54 56 57 57 57 56 57 55 53 49 47 46 44 40 38 44 43 41 40 41 42 45 45 42 38
24 24 26 31 34 32 43 42 39 38 41 41 33 45 36 34 38 45 52 57 59 61 61 58 57 53 50 49 46 43 46 49 46 44 45 43 38 39 40 41 43 44 42 42
31 29 31 33 33 33 36 39 37 44 47 49 42 39 34 33 39 47 53 60 63 63 56 51 45 42 40 42 48 49 50 48 47 50 51 47 46 42 41 41 42 39 39 42
31 28 25 32 35 33 32 38 30 36 37 44 39 34 28 47 59 64 62 63 59 55 49 47 37 29 25 24 21 23 24 35 46 46 44 47 48 44 43 42 38 36 37 39
28 29 27 29 29 36 33 32 37 40 48 54 46 46 49 56 65 62 61 58 49 44 34 33 26 23 22 23 24 24 25 29 36 42 40 41 42 39 40 41 40 36 43 42
28 27 30 29 32 34 36 35 35 33 35 46 54 50 41 55 56 53 52 42 35 29 28 28 26 26 26 27 28 32 37 37 39 43 37 36 38 39 40 38 32 31 42 35
28 26 36 32 27 30 32 34 35 42 43 38 44 49 40 51 49 47 40 36 32 29 29 29 30 31 31 31 31 32 33 33 31 29 31 35 29 24 31 30 24 32 17 18
29 32 37 35 29 30 35 35 35 34 35 43 51 49 45 44 46 41 38 32 29 30 31 32 33 33 33 33 32 31 29 28 26 26 25 28 28 28 28 28 30 27 27 25
24 29 33 37 35 32 35 34 35 37 43 45 45 52 49 45 47 38 30 30 31 33 36 35 35 36 35 33 31 29 28 27 26 25 27 29 29 29 29 28 27 26 26 26
27 31 33 33 31 33 33 34 36 39 38 45 48 49 43 42 41 34 33 32 34 35 36 40 39 39 36 33 41 37 35 35 32 32 29 27 27 27 24 22 23 23 22 20
28 32 34 34 31 33 33 34 37 37 38 42 44 45 33 37 35 35 34 35 37 39 41 39 37 35 33 36 40 41 38 35 32 26 25 23 22 18 15 16 15 15 16 17
29 33 35 39 37 33 37 36 39 39 38 41 45 39 42 38 33 36 35 34 40 40 39 38 37 35 36 38 40 37 34 28 24 20 18 15 14 14 14 16 18 18 19 20
29 32 32 37 38 44 33 27 35 40 40 37 34 42 36 31 26 30 30 38 40 39 39 36 37 37 36 37 35 31 25 23 19 17 15 14 14 14 15 14 11 9 10 11
29 30 35 38 40 34 33 34 40 46 46 31 42 43 33 29 26 30 35 36 37 41 36 34 34 33 36 33 30 27 22 19 17 15 15 15 13 13 7 6 4 2 3 4
28 29 33 37 41 42 33 34 35 34 43 32 43 38 33 29 32 30 35 35 36 35 32 36 35 34 32 30 27 23 18 17 17 18 17 15 11 6 5 7 10 11 13 14
30 31 34 35 36 33 27 34 34 48 44 42 39 33 29 28 27 29 33 33 33 31 34 34 33 32 29 27 24 20 17 17 18 18 15 13 11 9 10 12 15 17 20 24
30 31 33 33 36 40 29 32 41 33 34 36 35 29 22 22 24 27 30 31 32 34 36 34 31 30 27 25 21 19 18 19 19 17 12 12 13 14 13 14 18 21 24 25
28 24 30 26 30 26 27 30 26 31 34 35 33 25 19 21 23 26 29 30 31 32 33 31 30 27 25 23 20 18 19 20 18 12 13 13 15 17 17 18 21 24 27 31
22 20 26 28 26 28 30 24 29 30 31 30 27 17 16 19 22 25 27 30 31 32 34 31 29 26 23 22 21 18 19 19 14 10 11 13 15 17 19 19 21 24 27 26
21 21 24 25 26 30 23 29 30 30 29 28 24 15 16 17 21 23 28 30 31 32 32 28 27 24 21 21 19 19 19 19 12 9 9 12 17 21 22 23 22 23 23 26
18 22 26 28 26 27 28 28 29 31 30 27 21 14 14 16 21 25 27 29 31 33 31 28 26 22 21 19 17 18 20 16 10 7 11 13 16 20 21 21 24 28 26 27
Wind_Direction
63 35 45 45 32 30 20 10 360 357 357 355 356 354 357 359 357 348 345 342 340 338 337 335 334 332 332 333 333 333 335 335 334 330 324 323 321 319 318 320 320 319 316 312
63 46 40 39 12 18 18 9 359 357 349 348 349 353 359 358 355 351 348 344 341 339 338 336 337 335 333 331 330 329 330 330 330 327 324 324 324 322 319 320 320 319 318 314
54 49 25 12 355 348 1 359 353 344 344 350 350 341 345 353 351 349 348 346 343 339 335 333 332 332 333 330 329 326 324 326 327 327 326 326 325 323 320 320 320 319 319 317
33 20 13 359 354 351 355 353 345 341 344 343 347 335 338 343 345 344 343 342 339 337 334 332 330 329 328 329 330 329 329 328 327 328 327 324 321 318 319 321 322 321 321 319
34 23 15 5 358 353 353 346 344 346 348 347 343 335 337 343 337 340 340 337 337 337 334 331 329 329 328 328 329 330 331 332 331 328 326 322 318 318 318 320 319 323 321 319
28 19 13 6 0 358 348 351 353 356 358 345 349 343 336 339 340 339 339 338 336 335 333 331 330 328 327 325 325 326 326 323 331 332 325 324 322 321 319 320 319 319 320 319
19 20 11 7 360 0 356 358 355 352 349 344 346 337 341 348 347 343 341 339 338 337 336 335 334 334 335 334 331 328 323 318 326 328 322 324 325 323 321 319 319 319 319 312
8 6 9 6 6 1 4 7 0 347 343 336 340 342 345 351 348 345 341 338 337 338 340 342 344 344 345 344 329 325 322 326 325 319 313 319 320 321 320 319 318 318 317 309
7 9 15 12 9 6 5 2 2 350 346 343 347 351 345 344 344 342 340 338 341 345 347 348 350 346 344 342 320 330 309 290 322 326 325 322 321 321 320 319 317 316 314 310
11 5 12 9 9 13 12 4 357 357 347 343 345 344 341 345 344 346 346 346 350 352 352 353 345 333 324 322 328 331 330 332 333 330 327 325 323 321 319 317 314 311 307 304
14 10 5 7 7 4 1 3 2 357 351 346 343 345 349 349 349 350 351 356 356 346 340 339 338 337 335 329 333 337 337 333 331 328 325 323 322 321 321 320 317 311 301 309
12 12 359 6 16 16 11 3 1 354 351 347 344 344 353 350 351 353 355 355 351 346 338 339 340 340 337 334 332 329 329 325 321 318 324 329 322 304 281 275 269 270 291 296
10 5 359 1 3 5 2 3 3 359 357 350 348 345 347 351 352 355 354 348 342 343 340 338 337 335 333 329 324 320 319 317 319 321 314 297 289 285 279 275 273 267 264 254
18 11 4 356 354 358 358 1 3 2 354 350 347 342 348 353 353 354 342 341 343 346 346 340 335 334 335 328 321 327 322 318 314 309 297 293 288 285 280 276 271 264 260 255
12 4 2 359 359 1 2 3 2 359 357 352 347 345 348 354 353 350 344 342 343 342 339 344 341 342 339 320 308 307 306 301 300 297 296 293 287 283 280 274 270 266 262 250
9 1 1 0 3 1 1 5 2 360 357 351 348 349 358 352 354 353 349 349 348 346 344 340 336 332 333 319 313 309 306 303 301 300 298 293 288 287 284 279 273 266 261 254
5 1 360 357 360 3 360 3 1 357 355 352 352 356 355 354 353 353 348 348 351 344 340 338 329 325 322 318 315 312 310 308 309 306 307 308 306 300 294 287 282 275 267 261
3 1 2 357 1 357 3 4 2 358 355 356 359 355 356 352 342 346 355 354 350 347 345 337 324 321 322 319 317 317 317 317 319 323 326 322 312 307 303 300 293 283 271 262
9 4 358 358 356 357 4 4 1 358 356 9 359 356 357 352 339 2 2 353 351 352 347 331 324 322 322 322 323 322 321 326 334 339 337 332 325 317 326 340 341 23 51 34
7 9 2 359 358 357 4 5 3 4 0 9 358 357 357 350 359 339 337 346 348 347 336 324 324 324 326 329 328 329 334 341 346 343 346 347 351 11 44 71 82 82 83 77
358 360 359 359 358 358 5 5 5 1 359 355 357 358 357 360 355 340 344 341 349 341 327 325 326 328 330 332 335 343 349 356 351 350 348 15 39 58 82 91 91 92 95 98
356 358 358 1 359 358 7 6 3 1 355 356 358 359 353 344 342 345 343 343 336 330 328 328 329 330 331 336 341 353 355 352 354 351 15 37 62 73 86 92 96 98 101 97
356 2 359 2 360 3 5 3 6 0 357 360 360 360 349 345 343 341 335 335 330 328 328 329 330 330 332 336 346 352 353 350 352 17 31 57 72 74 81 88 97 102 102 104
2 6 1 1 8 3 359 11 2 1 360 0 3 352 343 345 339 334 332 329 328 327 329 329 331 331 334 339 343 349 353 351 1 28 53 64 68 73 86 88 90 98 104 103
3 7 2 360 1 1 13 2 2 2 3 4 6 349 337 339 337 333 326 326 324 325 328 330 331 331 334 336 341 347 349 349 2 28 60 78 89 92 85 85 88 86 92 105
5 2 360 359 3 0 357 0 2 2 2 6 9 330 336 345 329 322 323 322 321 324 325 326 329 330 331 335 339 345 347 352 12 57 88 90 100 102 102 93 75 68 75 73